{"data":{"norad_id":27691,"epoch":"2026-09-19T13:50:54.751776Z","epoch_age_seconds":94444,"freshness":"FRESH","line1":"1 27691U 03008A   26262.57702259  .00000005  00000+0  00000+0 0  9994","line2":"2 27691  11.1451  42.5337 0002903 287.2648 114.3572  1.00273715  7720","mean_motion":1.00273715,"eccentricity":0.0002903,"inclination_deg":11.1451,"raan_deg":42.5337,"arg_perigee_deg":287.2648,"mean_anomaly_deg":114.3572,"bstar":0,"rev_number":772,"period_min":1436.0692630167,"perigee_km":35773.813656183,"apogee_km":35798.294185432,"semimajor_km":42164.190920808,"source":"CELESTRAK","updated_at":"2026-09-20T09:00:35.120907Z"}}